QPF
0.00 0.00 0.00 0.00 0.00 0.00 0.00 0.00 0.00 0.00 0.00 0.00 0.00 0.00 0.00 0.00 0.00 0.00 0.00 0.00 0.00 0.00 0.00 0.00 0.00 0.00 0.00 0.01 0.00 0.00 0.00 0.00 0.00 0.01 0.00 0.00 0.00 0.00 0.00 0.00 0.00 0.01 0.00 0.00 0.00 0.00 0.00 0.00 0.00
0.00 0.00 0.00 0.00 0.00 0.00 0.00 0.00 0.00 0.00 0.00 0.00 0.00 0.00 0.00 0.00 0.00 0.00 0.00 0.00 0.00 0.00 0.00 0.00 0.00 0.00 0.00 0.00 0.00 0.00 0.00 0.01 0.01 0.01 0.01 0.00 0.00 0.00 0.00 0.00 0.00 0.00 0.00 0.00 0.00 0.00 0.00 0.00 0.00
0.00 0.00 0.00 0.00 0.00 0.00 0.00 0.00 0.00 0.00 0.00 0.00 0.00 0.00 0.00 0.00 0.00 0.00 0.00 0.00 0.00 0.00 0.00 0.00 0.00 0.00 0.00 0.01 0.00 0.00 0.01 0.02 0.01 0.00 0.00 0.00 0.00 0.00 0.00 0.00 0.00 0.00 0.00 0.00 0.00 0.00 0.00 0.00 0.00
0.00 0.00 0.00 0.00 0.00 0.00 0.00 0.00 0.00 0.00 0.00 0.00 0.00 0.00 0.00 0.00 0.00 0.00 0.00 0.00 0.00 0.00 0.00 0.00 0.00 0.00 0.00 0.00 0.00 0.00 0.01 0.01 0.00 0.00 0.00 0.00 0.00 0.00 0.00 0.00 0.00 0.00 0.00 0.00 0.00 0.00 0.00 0.00 0.00
0.00 0.00 0.00 0.00 0.00 0.00 0.00 0.00 0.00 0.00 0.00 0.00 0.00 0.00 0.00 0.00 0.00 0.00 0.00 0.00 0.00 0.00 0.00 0.00 0.00 0.00 0.00 0.00 0.00 0.00 0.00 0.00 0.00 0.00 0.00 0.00 0.00 0.00 0.00 0.00 0.00 0.00 0.00 0.00 0.00 0.00 0.00 0.00 0.00
0.00 0.00 0.00 0.00 0.00 0.00 0.00 0.00 0.00 0.00 0.00 0.00 0.00 0.00 0.00 0.00 0.00 0.00 0.00 0.00 0.00 0.00 0.00 0.00 0.00 0.00 0.00 0.00 0.00 0.00 0.00 0.00 0.00 0.00 0.00 0.00 0.00 0.00 0.00 0.00 0.00 0.00 0.00 0.00 0.00 0.00 0.00 0.00 0.00
0.00 0.00 0.00 0.00 0.00 0.00 0.00 0.00 0.00 0.00 0.00 0.00 0.00 0.00 0.00 0.00 0.00 0.00 0.00 0.00 0.00 0.00 0.00 0.00 0.00 0.00 0.00 0.00 0.00 0.00 0.00 0.00 0.00 0.00 0.00 0.00 0.00 0.00 0.00 0.00 0.00 0.00 0.00 0.00 0.00 0.00 0.00 0.00 0.00
0.00 0.00 0.00 0.00 0.00 0.00 0.00 0.00 0.00 0.00 0.00 0.00 0.00 0.00 0.00 0.00 0.00 0.00 0.00 0.00 0.00 0.00 0.00 0.00 0.00 0.00 0.00 0.00 0.00 0.00 0.00 0.00 0.00 0.00 0.00 0.00 0.00 0.00 0.00 0.00 0.00 0.00 0.00 0.00 0.00 0.00 0.00 0.00 0.00
0.00 0.00 0.00 0.00 0.00 0.00 0.00 0.00 0.00 0.00 0.00 0.00 0.00 0.00 0.00 0.00 0.00 0.00 0.00 0.00 0.00 0.00 0.00 0.00 0.00 0.00 0.00 0.00 0.00 0.00 0.00 0.00 0.00 0.00 0.00 0.00 0.00 0.00 0.00 0.00 0.00 0.00 0.00 0.00 0.00 0.00 0.00 0.00 0.00
0.00 0.00 0.00 0.00 0.00 0.00 0.00 0.00 0.00 0.00 0.00 0.00 0.00 0.00 0.00 0.00 0.00 0.00 0.00 0.00 0.00 0.00 0.00 0.00 0.00 0.00 0.00 0.00 0.00 0.00 0.00 0.00 0.00 0.00 0.00 0.00 0.00 0.00 0.00 0.00 0.00 0.00 0.00 0.00 0.00 0.00 0.00 0.00 0.00
0.00 0.00 0.00 0.00 0.00 0.00 0.00 0.00 0.00 0.00 0.00 0.00 0.00 0.00 0.00 0.00 0.00 0.00 0.00 0.00 0.00 0.00 0.00 0.00 0.00 0.00 0.00 0.00 0.00 0.00 0.00 0.00 0.00 0.00 0.00 0.00 0.00 0.00 0.00 0.00 0.00 0.00 0.00 0.00 0.00 0.00 0.00 0.00 0.00
0.00 0.00 0.00 0.00 0.00 0.00 0.00 0.00 0.00 0.00 0.00 0.00 0.00 0.00 0.00 0.00 0.00 0.00 0.00 0.00 0.00 0.00 0.00 0.00 0.00 0.00 0.00 0.00 0.00 0.00 0.00 0.00 0.00 0.00 0.00 0.00 0.00 0.00 0.00 0.00 0.00 0.00 0.00 0.00 0.00 0.00 0.00 0.00 0.00
0.00 0.00 0.00 0.00 0.00 0.00 0.00 0.00 0.00 0.00 0.00 0.00 0.00 0.00 0.00 0.00 0.00 0.00 0.00 0.00 0.00 0.00 0.00 0.00 0.00 0.00 0.00 0.00 0.00 0.00 0.00 0.00 0.00 0.00 0.00 0.00 0.00 0.00 0.00 0.00 0.00 0.00 0.00 0.00 0.00 0.00 0.00 0.00 0.00
0.00 0.00 0.00 0.00 0.00 0.00 0.00 0.00 0.00 0.00 0.00 0.00 0.00 0.00 0.00 0.00 0.00 0.00 0.00 0.00 0.00 0.00 0.00 0.00 0.00 0.00 0.00 0.00 0.00 0.00 0.00 0.00 0.00 0.00 0.00 0.00 0.00 0.00 0.00 0.00 0.00 0.00 0.00 0.00 0.00 0.00 0.00 0.00 0.00
0.00 0.00 0.00 0.00 0.00 0.00 0.00 0.00 0.00 0.00 0.00 0.00 0.00 0.00 0.00 0.00 0.00 0.00 0.00 0.00 0.00 0.00 0.00 0.00 0.00 0.00 0.00 0.00 0.00 0.00 0.00 0.00 0.00 0.00 0.00 0.00 0.00 0.00 0.00 0.00 0.00 0.00 0.00 0.00 0.00 0.00 0.00 0.00 0.00
0.00 0.00 0.00 0.00 0.00 0.00 0.00 0.00 0.00 0.00 0.00 0.00 0.00 0.00 0.00 0.00 0.00 0.00 0.00 0.00 0.00 0.00 0.00 0.00 0.00 0.00 0.00 0.00 0.00 0.00 0.00 0.00 0.00 0.00 0.00 0.00 0.00 0.00 0.00 0.00 0.00 0.00 0.00 0.00 0.00 0.00 0.00 0.00 0.00
0.00 0.00 0.00 0.00 0.00 0.00 0.00 0.00 0.00 0.00 0.00 0.00 0.00 0.00 0.00 0.00 0.00 0.00 0.00 0.00 0.00 0.00 0.00 0.00 0.00 0.00 0.00 0.00 0.00 0.00 0.00 0.00 0.00 0.00 0.00 0.00 0.00 0.00 0.00 0.00 0.00 0.00 0.00 0.00 0.00 0.00 0.00 0.00 0.00
0.00 0.00 0.00 0.00 0.00 0.00 0.00 0.00 0.00 0.00 0.00 0.00 0.00 0.00 0.00 0.00 0.00 0.00 0.00 0.00 0.00 0.00 0.00 0.00 0.00 0.00 0.00 0.00 0.00 0.00 0.00 0.00 0.00 0.00 0.00 0.00 0.00 0.00 0.00 0.00 0.00 0.00 0.00 0.00 0.00 0.00 0.00 0.00 0.00
0.00 0.00 0.00 0.00 0.00 0.00 0.00 0.00 0.00 0.00 0.00 0.00 0.00 0.00 0.00 0.00 0.00 0.00 0.00 0.00 0.00 0.00 0.00 0.00 0.00 0.00 0.00 0.00 0.00 0.00 0.00 0.00 0.00 0.00 0.00 0.00 0.00 0.00 0.00 0.00 0.00 0.00 0.00 0.00 0.00 0.00 0.00 0.00 0.00
0.00 0.00 0.00 0.00 0.00 0.00 0.00 0.00 0.00 0.00 0.00 0.00 0.00 0.00 0.00 0.00 0.00 0.00 0.00 0.00 0.00 0.00 0.00 0.00 0.00 0.00 0.00 0.00 0.00 0.00 0.00 0.00 0.00 0.00 0.00 0.00 0.00 0.00 0.00 0.00 0.00 0.00 0.00 0.00 0.00 0.00 0.00 0.00 0.00
0.00 0.00 0.00 0.00 0.00 0.00 0.00 0.00 0.00 0.00 0.00 0.00 0.00 0.00 0.00 0.00 0.00 0.00 0.00 0.00 0.00 0.00 0.00 0.00 0.00 0.00 0.00 0.00 0.00 0.00 0.00 0.00 0.00 0.00 0.00 0.00 0.00 0.00 0.00 0.00 0.00 0.00 0.00 0.00 0.00 0.00 0.00 0.00 0.00
0.00 0.00 0.00 0.00 0.00 0.00 0.00 0.00 0.00 0.00 0.00 0.00 0.00 0.00 0.00 0.00 0.00 0.00 0.00 0.00 0.00 0.00 0.00 0.00 0.00 0.00 0.00 0.00 0.00 0.00 0.00 0.00 0.00 0.00 0.00 0.00 0.00 0.00 0.00 0.00 0.00 0.00 0.00 0.00 0.00 0.00 0.00 0.00 0.00
0.00 0.00 0.00 0.00 0.00 0.00 0.00 0.00 0.00 0.00 0.00 0.00 0.00 0.00 0.00 0.00 0.00 0.00 0.00 0.00 0.00 0.00 0.00 0.00 0.00 0.00 0.00 0.00 0.00 0.00 0.00 0.00 0.00 0.00 0.00 0.00 0.00 0.00 0.00 0.00 0.00 0.00 0.00 0.00 0.00 0.00 0.00 0.00 0.00
0.00 0.00 0.00 0.00 0.00 0.00 0.00 0.00 0.00 0.00 0.00 0.00 0.00 0.00 0.00 0.00 0.00 0.00 0.00 0.00 0.00 0.00 0.00 0.00 0.00 0.00 0.00 0.00 0.00 0.00 0.00 0.00 0.00 0.00 0.00 0.00 0.00 0.00 0.00 0.00 0.00 0.00 0.00 0.00 0.00 0.00 0.00 0.00 0.00
0.00 0.00 0.00 0.00 0.00 0.00 0.00 0.00 0.00 0.00 0.00 0.00 0.00 0.00 0.00 0.00 0.00 0.00 0.00 0.00 0.00 0.00 0.00 0.00 0.00 0.00 0.00 0.00 0.00 0.00 0.00 0.00 0.00 0.00 0.00 0.00 0.00 0.00 0.00 0.00 0.00 0.00 0.00 0.00 0.00 0.00 0.00 0.00 0.00
0.00 0.00 0.00 0.00 0.00 0.00 0.00 0.00 0.00 0.00 0.00 0.00 0.00 0.00 0.00 0.00 0.00 0.00 0.00 0.00 0.00 0.00 0.00 0.00 0.00 0.00 0.00 0.00 0.00 0.00 0.00 0.00 0.00 0.00 0.00 0.00 0.00 0.00 0.00 0.00 0.00 0.00 0.00 0.00 0.00 0.00 0.00 0.00 0.00
0.00 0.00 0.00 0.00 0.00 0.00 0.00 0.00 0.00 0.00 0.00 0.00 0.00 0.00 0.00 0.00 0.00 0.00 0.00 0.00 0.00 0.00 0.00 0.00 0.00 0.00 0.00 0.00 0.00 0.00 0.00 0.00 0.00 0.00 0.00 0.00 0.00 0.00 0.00 0.00 0.00 0.00 0.00 0.00 0.00 0.00 0.00 0.00 0.00
0.00 0.00 0.00 0.00 0.00 0.00 0.00 0.00 0.00 0.00 0.00 0.00 0.00 0.00 0.00 0.00 0.00 0.00 0.00 0.00 0.00 0.00 0.00 0.00 0.00 0.00 0.00 0.00 0.00 0.00 0.00 0.00 0.00 0.00 0.00 0.00 0.00 0.00 0.00 0.00 0.00 0.00 0.00 0.00 0.00 0.00 0.00 0.00 0.00
0.00 0.00 0.00 0.00 0.00 0.00 0.00 0.00 0.00 0.00 0.00 0.00 0.00 0.00 0.00 0.00 0.00 0.00 0.00 0.00 0.00 0.00 0.00 0.00 0.00 0.00 0.00 0.00 0.00 0.00 0.00 0.00 0.00 0.00 0.00 0.00 0.00 0.00 0.00 0.00 0.00 0.00 0.00 0.00 0.00 0.00 0.00 0.00 0.00
0.00 0.00 0.00 0.00 0.00 0.00 0.00 0.00 0.00 0.00 0.00 0.00 0.00 0.00 0.00 0.00 0.00 0.00 0.00 0.00 0.00 0.00 0.00 0.00 0.00 0.00 0.00 0.00 0.00 0.00 0.00 0.00 0.00 0.00 0.00 0.00 0.00 0.00 0.00 0.00 0.00 0.00 0.00 0.00 0.00 0.00 0.00 0.00 0.00
MSLP
1016.96 1017.01 1017.11 1017.44 1019.00 1019.71 1019.41 1018.61 1017.94 1017.45 1017.17 1016.91 1016.92 1017.11 1017.04 1016.94 1016.83 1016.87 1016.35 1016.39 1016.42 1016.41 1016.90 1017.11 1017.34 1017.63 1017.97 1018.26 1018.60 1018.92 1019.08 1019.18 1019.32 1019.47 1019.69 1019.85 1020.03 1020.29 1020.61 1020.80 1020.89 1020.80 1021.08 1021.15 1021.43 1021.74 1021.78 1021.81 1021.87
1017.07 1017.03 1017.47 1018.52 1019.52 1020.04 1019.30 1018.34 1017.81 1017.19 1016.93 1016.89 1016.86 1016.87 1016.91 1016.48 1016.18 1015.96 1016.16 1016.12 1016.40 1016.25 1016.66 1016.97 1017.21 1017.51 1017.87 1018.22 1018.52 1018.81 1019.04 1019.21 1019.39 1019.56 1019.70 1019.92 1020.16 1020.43 1020.61 1020.93 1020.79 1021.02 1021.08 1021.38 1021.84 1022.06 1022.00 1021.99 1021.99
1017.05 1017.45 1018.40 1019.35 1020.26 1020.15 1019.13 1017.93 1017.37 1016.95 1016.84 1016.88 1016.89 1016.77 1016.52 1015.99 1015.94 1015.83 1015.80 1015.98 1016.49 1016.60 1016.72 1016.97 1017.18 1017.45 1017.77 1018.12 1018.42 1018.71 1018.90 1019.14 1019.36 1019.62 1019.88 1020.17 1020.53 1020.75 1021.17 1021.10 1021.28 1021.31 1021.44 1021.84 1022.11 1022.18 1022.21 1022.27 1022.25
1017.46 1018.23 1019.79 1019.98 1020.36 1019.71 1018.80 1017.70 1017.43 1016.97 1016.72 1016.83 1016.77 1016.77 1016.37 1015.41 1015.68 1015.77 1015.94 1016.34 1016.56 1016.74 1017.03 1017.24 1017.27 1017.41 1017.71 1018.07 1018.30 1018.60 1018.82 1019.03 1019.27 1019.70 1020.19 1020.67 1020.94 1021.14 1021.37 1021.45 1021.40 1021.80 1021.97 1022.10 1022.26 1022.37 1022.38 1022.46 1022.42
1018.35 1019.33 1020.09 1020.53 1020.23 1019.27 1018.39 1017.52 1017.29 1017.08 1016.92 1016.81 1016.79 1016.62 1016.34 1015.50 1015.94 1015.99 1016.13 1016.35 1016.67 1016.92 1017.02 1017.25 1017.35 1017.48 1017.69 1017.98 1018.24 1018.53 1018.77 1019.07 1019.24 1020.04 1020.41 1020.66 1021.07 1021.38 1021.61 1021.76 1021.92 1022.03 1022.16 1022.26 1022.35 1022.57 1022.59 1022.70 1022.72
1019.12 1020.01 1020.74 1020.78 1020.05 1019.01 1018.01 1017.27 1017.16 1017.06 1016.92 1016.88 1016.94 1016.67 1016.06 1015.41 1015.81 1015.91 1016.25 1016.33 1016.35 1016.71 1017.13 1017.35 1017.44 1017.52 1017.63 1017.91 1018.24 1018.50 1018.77 1019.03 1019.41 1020.07 1020.28 1020.65 1021.12 1021.42 1021.68 1021.82 1022.03 1022.18 1022.26 1022.32 1022.57 1022.72 1022.67 1022.77 1022.94
1019.16 1020.31 1020.78 1020.65 1019.95 1018.91 1017.51 1017.01 1016.89 1016.67 1016.63 1016.45 1016.44 1016.62 1015.80 1015.60 1015.59 1016.03 1016.36 1016.53 1016.65 1016.89 1017.13 1017.17 1017.32 1017.49 1017.71 1017.94 1018.17 1018.37 1018.73 1019.09 1019.48 1019.89 1020.24 1020.71 1021.11 1021.46 1021.64 1021.87 1021.95 1022.10 1022.30 1022.63 1022.70 1022.91 1022.91 1023.06 1023.33
1019.25 1020.15 1020.71 1020.37 1019.73 1018.35 1017.05 1016.80 1016.38 1016.53 1016.21 1016.38 1016.39 1016.24 1015.75 1015.55 1016.07 1016.44 1016.62 1016.77 1016.99 1016.99 1017.00 1017.09 1017.21 1017.29 1017.48 1017.79 1018.10 1018.34 1018.61 1018.91 1019.32 1019.75 1020.21 1020.70 1021.15 1021.45 1021.77 1021.97 1022.13 1022.32 1022.51 1022.65 1022.84 1023.03 1023.07 1023.28 1023.59
1019.29 1020.22 1020.51 1019.75 1019.44 1017.78 1016.84 1016.64 1016.26 1016.05 1016.06 1016.18 1015.87 1015.57 1015.14 1015.87 1016.45 1016.59 1016.82 1016.94 1016.93 1016.93 1016.92 1016.97 1017.07 1017.23 1017.38 1017.67 1017.91 1018.25 1018.60 1018.86 1019.25 1019.68 1020.16 1020.73 1021.25 1021.59 1021.92 1022.06 1022.04 1022.26 1022.57 1022.78 1023.13 1023.21 1023.37 1023.55 1023.62
1019.29 1020.14 1019.45 1018.39 1017.96 1017.27 1016.68 1016.43 1016.01 1016.17 1015.92 1015.57 1015.43 1014.96 1015.19 1015.93 1016.30 1016.33 1016.35 1016.20 1016.42 1016.26 1016.21 1016.62 1016.84 1016.98 1017.30 1017.63 1017.92 1018.15 1018.50 1018.80 1019.26 1019.67 1020.13 1020.74 1021.27 1021.69 1022.00 1022.24 1022.14 1022.30 1022.58 1022.87 1023.18 1023.25 1023.58 1023.86 1023.94
1019.10 1019.12 1018.33 1017.74 1017.18 1016.81 1016.63 1016.14 1015.72 1015.78 1015.29 1014.33 1014.49 1014.32 1014.69 1015.37 1015.82 1015.86 1015.64 1015.26 1014.73 1014.99 1015.77 1015.89 1016.41 1016.75 1017.04 1017.34 1017.74 1018.11 1018.43 1018.79 1019.25 1019.73 1020.27 1020.87 1021.36 1021.75 1022.02 1022.19 1022.36 1022.65 1022.89 1023.11 1023.44 1023.76 1023.97 1024.05 1024.08
1018.97 1018.16 1017.93 1017.39 1016.99 1016.95 1016.56 1015.99 1015.75 1015.52 1013.22 1012.96 1013.12 1013.58 1013.86 1014.47 1014.81 1014.85 1014.75 1014.47 1014.69 1014.80 1014.87 1015.40 1015.83 1016.34 1016.78 1017.13 1017.37 1017.66 1018.07 1018.55 1019.05 1019.54 1020.12 1020.72 1021.32 1021.69 1021.90 1022.16 1022.46 1022.82 1023.18 1023.54 1023.75 1023.90 1024.17 1024.33 1024.43
1018.66 1018.04 1017.59 1017.18 1017.13 1016.70 1016.49 1015.62 1015.77 1014.23 1012.88 1012.83 1013.05 1013.28 1013.18 1013.52 1013.45 1013.50 1013.49 1013.69 1013.96 1014.00 1014.21 1014.54 1015.11 1015.37 1015.87 1016.59 1016.94 1017.33 1017.57 1017.98 1018.44 1019.22 1019.84 1020.28 1020.91 1021.38 1021.79 1022.17 1022.54 1022.90 1023.27 1023.50 1023.81 1024.06 1024.26 1024.32 1024.45
1017.93 1017.75 1017.32 1017.05 1016.80 1016.55 1016.55 1015.07 1015.24 1012.78 1012.61 1012.57 1012.80 1012.15 1012.28 1012.55 1012.10 1012.63 1012.69 1012.36 1012.85 1012.81 1012.89 1013.53 1013.93 1014.43 1015.02 1015.49 1015.96 1016.43 1017.05 1017.49 1018.13 1018.67 1019.17 1019.84 1020.34 1020.95 1021.46 1021.97 1022.30 1022.75 1023.04 1023.48 1023.84 1024.07 1024.20 1024.46 1024.54
1017.51 1017.72 1017.04 1016.57 1015.88 1016.09 1016.04 1015.85 1014.27 1012.15 1012.84 1012.63 1011.88 1011.85 1011.52 1011.40 1011.57 1011.20 1010.52 1011.04 1011.07 1011.29 1011.76 1012.21 1012.81 1013.54 1014.09 1014.42 1014.94 1015.48 1015.98 1016.87 1017.48 1017.96 1018.55 1019.13 1019.74 1020.23 1020.86 1021.56 1022.05 1022.44 1022.90 1023.31 1023.92 1024.38 1024.54 1024.60 1024.51
1017.87 1018.12 1017.63 1015.84 1015.85 1015.50 1015.69 1014.64 1012.94 1012.40 1012.52 1012.29 1011.70 1011.01 1010.91 1010.14 1009.84 1009.64 1010.04 1010.19 1010.42 1010.65 1010.89 1011.41 1011.75 1012.26 1012.85 1013.38 1013.91 1014.43 1015.13 1015.78 1016.28 1017.05 1017.87 1018.58 1019.20 1019.76 1020.45 1021.02 1021.56 1022.17 1022.80 1023.22 1023.57 1023.92 1024.11 1024.39 1024.35
1018.51 1018.21 1017.75 1016.80 1015.01 1015.58 1015.67 1014.43 1012.89 1012.51 1012.66 1012.03 1011.39 1010.72 1009.87 1009.05 1008.35 1008.51 1008.73 1008.92 1009.12 1009.39 1009.78 1010.12 1010.80 1011.01 1011.50 1012.41 1013.09 1013.83 1014.49 1014.96 1015.60 1016.41 1016.96 1017.71 1018.47 1019.19 1019.75 1020.40 1021.10 1021.89 1022.31 1022.74 1023.11 1023.60 1023.81 1024.14 1024.36
1018.08 1018.29 1017.85 1017.29 1015.25 1015.54 1015.36 1014.25 1013.42 1012.83 1012.41 1011.05 1010.13 1009.42 1008.77 1008.64 1008.06 1007.47 1008.12 1008.15 1008.03 1008.20 1008.65 1009.17 1009.82 1010.34 1011.12 1011.98 1012.80 1013.56 1014.22 1014.49 1014.97 1015.41 1016.01 1016.75 1017.49 1018.40 1019.19 1019.95 1020.69 1021.37 1021.94 1022.46 1022.88 1023.25 1023.87 1023.90 1024.20
1017.93 1017.92 1017.82 1016.45 1015.67 1015.65 1014.16 1013.41 1013.00 1012.14 1011.43 1010.01 1008.80 1008.11 1008.28 1008.16 1007.18 1007.54 1007.62 1007.44 1007.17 1007.31 1007.88 1008.16 1008.70 1009.27 1010.14 1010.92 1011.80 1012.73 1012.55 1013.40 1014.17 1014.58 1015.11 1015.74 1016.53 1017.46 1018.24 1019.08 1020.00 1020.77 1021.18 1021.63 1022.39 1023.19 1023.41 1023.90 1024.21
1017.91 1018.04 1017.33 1016.47 1015.27 1015.62 1014.24 1012.95 1011.88 1010.76 1009.57 1008.97 1008.29 1007.89 1008.53 1007.96 1007.22 1007.08 1007.39 1007.51 1007.36 1007.01 1006.97 1007.56 1007.96 1008.46 1008.49 1008.90 1009.66 1010.56 1011.30 1012.45 1013.13 1013.84 1014.40 1014.92 1015.74 1016.57 1017.42 1018.26 1019.14 1019.92 1020.59 1021.27 1021.90 1022.38 1023.14 1023.55 1023.79
1017.94 1017.89 1016.96 1016.85 1016.16 1015.38 1014.20 1012.07 1011.11 1009.44 1008.76 1008.29 1007.51 1008.46 1008.53 1008.85 1008.28 1007.74 1007.53 1007.24 1007.19 1006.84 1006.92 1006.78 1007.28 1007.92 1008.52 1008.84 1009.46 1010.54 1011.54 1012.50 1013.03 1013.45 1013.97 1014.38 1014.87 1015.69 1016.41 1017.27 1018.21 1019.23 1019.79 1020.46 1021.03 1021.54 1021.88 1022.61 1023.36
1017.65 1016.52 1016.64 1017.05 1017.32 1016.69 1015.44 1011.50 1010.83 1009.01 1008.76 1007.79 1008.31 1008.38 1008.68 1009.02 1008.61 1008.40 1008.41 1007.10 1007.30 1006.90 1006.65 1006.82 1007.46 1007.34 1008.57 1009.53 1010.06 1009.40 1009.00 1009.95 1010.49 1011.34 1012.86 1013.80 1014.38 1014.78 1015.46 1016.35 1017.08 1018.03 1019.11 1019.87 1020.32 1020.83 1021.16 1021.46 1022.22
1015.98 1016.11 1016.71 1016.92 1017.36 1017.11 1015.99 1015.05 1010.58 1009.43 1008.46 1008.19 1008.35 1008.43 1008.51 1008.84 1008.80 1007.89 1008.27 1008.97 1008.70 1008.39 1007.83 1007.50 1007.57 1008.01 1008.50 1008.91 1009.28 1010.09 1010.22 1009.32 1009.43 1010.23 1011.55 1012.90 1014.02 1014.73 1015.12 1015.57 1016.52 1017.21 1017.95 1018.72 1019.47 1020.38 1020.87 1021.05 1021.30
1016.01 1016.46 1017.16 1017.65 1017.65 1017.26 1015.00 1014.25 1010.22 1009.00 1008.15 1008.27 1008.21 1008.27 1008.78 1008.86 1009.05 1008.93 1009.52 1009.87 1009.71 1009.22 1008.85 1008.81 1008.50 1009.15 1009.12 1009.46 1010.31 1010.63 1010.40 1010.77 1010.58 1010.25 1010.86 1011.64 1013.00 1014.19 1015.19 1015.57 1015.87 1016.53 1017.12 1017.68 1018.28 1019.12 1019.87 1020.35 1020.78
1016.28 1017.15 1017.97 1018.22 1018.14 1016.07 1014.57 1014.09 1010.16 1008.68 1008.05 1008.82 1009.37 1009.78 1010.73 1010.79 1010.86 1011.24 1010.86 1010.29 1010.45 1010.39 1010.06 1009.20 1009.66 1010.02 1010.37 1010.51 1010.47 1010.89 1011.04 1011.20 1011.12 1011.24 1011.11 1011.61 1012.28 1013.07 1013.66 1014.74 1015.46 1015.88 1016.56 1017.17 1017.73 1018.41 1018.98 1019.42 1019.79
1016.11 1016.41 1016.99 1016.53 1016.70 1015.16 1014.47 1012.34 1008.22 1008.40 1009.07 1009.83 1010.39 1011.65 1012.36 1012.70 1012.88 1013.28 1013.07 1012.66 1011.92 1011.18 1010.72 1010.73 1010.48 1010.67 1010.77 1010.78 1011.20 1011.33 1011.92 1012.28 1012.03 1011.33 1010.83 1011.05 1011.30 1011.60 1012.29 1013.18 1014.07 1014.91 1015.77 1016.71 1017.60 1018.31 1018.70 1019.12 1019.44
1015.75 1015.87 1015.02 1015.21 1015.25 1014.78 1013.11 1011.34 1009.21 1008.92 1010.55 1011.86 1013.13 1013.70 1014.51 1014.67 1014.60 1014.35 1014.19 1014.02 1014.04 1012.99 1012.40 1011.72 1011.60 1011.19 1011.07 1011.16 1011.06 1011.29 1011.55 1011.79 1011.86 1011.79 1011.54 1011.60 1011.56 1011.70 1012.46 1012.65 1012.97 1013.63 1014.28 1015.16 1015.98 1016.79 1017.61 1018.37 1019.03
1014.52 1014.44 1015.08 1015.27 1014.87 1013.55 1012.36 1011.52 1010.57 1010.50 1012.86 1014.31 1014.86 1015.76 1016.27 1016.25 1015.82 1015.20 1014.87 1014.81 1015.22 1014.23 1013.50 1012.77 1012.44 1012.27 1011.82 1011.52 1011.35 1011.21 1011.43 1011.62 1011.75 1011.50 1010.62 1010.48 1010.74 1011.25 1011.84 1012.53 1013.21 1013.55 1013.97 1014.53 1015.22 1015.78 1016.50 1017.12 1018.01
1015.03 1014.63 1014.53 1014.65 1014.04 1012.73 1012.15 1011.09 1010.95 1012.72 1014.45 1015.56 1016.85 1016.94 1016.94 1016.93 1017.06 1016.42 1015.76 1015.22 1015.03 1014.65 1014.21 1013.87 1013.11 1013.21 1012.16 1012.10 1011.54 1011.33 1011.25 1011.36 1011.50 1011.46 1010.40 1010.10 1010.58 1010.82 1011.11 1011.45 1012.29 1013.04 1013.20 1013.77 1014.53 1014.71 1015.44 1015.91 1016.77
1014.04 1014.12 1014.11 1014.69 1013.89 1012.83 1011.91 1011.25 1011.82 1013.86 1015.41 1016.48 1017.39 1017.51 1017.24 1017.33 1017.29 1016.89 1016.42 1015.84 1015.01 1014.39 1014.15 1014.34 1014.02 1013.69 1013.34 1012.98 1012.03 1011.56 1011.24 1011.26 1011.38 1011.01 1010.47 1009.86 1010.00 1010.28 1010.57 1010.92 1011.09 1011.99 1012.62 1012.68 1012.95 1013.82 1014.13 1014.45 1015.23
Thickness
5737 5737 5735 5727 5699 5687 5681 5693 5700 5705 5710 5715 5713 5711 5711 5713 5709 5703 5728 5729 5730 5730 5726 5724 5722 5719 5717 5715 5714 5711 5709 5708 5707 5706 5704 5703 5703 5702 5699 5698 5700 5702 5700 5701 5699 5698 5699 5700 5700
5737 5736 5730 5709 5687 5676 5686 5696 5702 5709 5716 5716 5716 5715 5713 5715 5722 5727 5728 5730 5728 5729 5726 5723 5721 5719 5717 5714 5713 5712 5710 5707 5706 5705 5705 5704 5702 5700 5699 5696 5700 5697 5698 5697 5695 5694 5696 5696 5698
5737 5733 5717 5695 5674 5678 5687 5704 5711 5717 5718 5717 5716 5719 5720 5723 5728 5729 5732 5731 5726 5725 5724 5722 5720 5718 5716 5713 5712 5710 5709 5708 5705 5704 5703 5701 5698 5697 5693 5697 5694 5695 5695 5693 5691 5691 5692 5693 5694
5731 5724 5705 5692 5682 5690 5698 5713 5712 5715 5719 5716 5718 5715 5723 5735 5734 5733 5731 5727 5724 5722 5720 5717 5717 5716 5714 5712 5710 5708 5707 5706 5705 5702 5699 5695 5694 5693 5692 5692 5693 5689 5689 5690 5690 5688 5690 5690 5691
5723 5708 5690 5682 5683 5696 5703 5710 5714 5715 5715 5715 5717 5716 5718 5734 5732 5731 5730 5727 5723 5719 5718 5715 5714 5712 5711 5710 5708 5706 5705 5703 5703 5696 5695 5694 5691 5689 5689 5688 5686 5687 5687 5687 5686 5685 5687 5686 5687
5708 5699 5682 5678 5685 5698 5707 5715 5715 5712 5715 5715 5712 5713 5722 5734 5731 5731 5728 5727 5725 5721 5716 5713 5711 5710 5708 5706 5704 5703 5701 5700 5698 5693 5692 5690 5687 5686 5685 5684 5683 5683 5683 5683 5681 5681 5683 5683 5682
5703 5690 5681 5679 5682 5692 5712 5714 5715 5716 5714 5717 5720 5714 5727 5732 5733 5729 5726 5723 5721 5718 5716 5715 5712 5709 5706 5704 5702 5700 5698 5696 5693 5691 5690 5687 5684 5682 5682 5681 5681 5680 5678 5676 5677 5675 5677 5676 5675
5700 5692 5681 5677 5682 5694 5716 5713 5719 5714 5717 5716 5716 5714 5722 5734 5726 5723 5721 5720 5717 5715 5714 5713 5711 5710 5707 5704 5701 5698 5696 5694 5691 5688 5685 5683 5680 5679 5677 5676 5675 5674 5673 5674 5673 5671 5672 5671 5670
5701 5682 5671 5683 5678 5700 5713 5712 5715 5718 5715 5712 5716 5722 5731 5722 5719 5719 5716 5714 5714 5713 5713 5711 5709 5708 5706 5703 5700 5697 5693 5691 5688 5685 5682 5678 5675 5673 5671 5672 5672 5670 5669 5669 5666 5667 5667 5666 5666
5692 5674 5682 5694 5693 5700 5710 5709 5713 5709 5711 5708 5715 5722 5723 5717 5716 5717 5716 5717 5714 5715 5716 5711 5708 5707 5704 5701 5698 5695 5692 5689 5686 5683 5680 5676 5672 5669 5666 5665 5665 5666 5665 5663 5662 5663 5662 5661 5660
5689 5685 5691 5698 5698 5704 5703 5705 5709 5703 5705 5714 5714 5723 5722 5715 5712 5714 5717 5720 5723 5721 5714 5712 5707 5703 5701 5699 5695 5692 5689 5686 5682 5679 5675 5671 5667 5664 5662 5661 5660 5658 5658 5657 5655 5655 5653 5653 5653
5686 5692 5693 5702 5701 5699 5698 5703 5702 5699 5728 5727 5725 5725 5725 5717 5715 5715 5717 5719 5716 5713 5713 5709 5705 5701 5697 5694 5693 5690 5687 5683 5679 5675 5672 5667 5663 5660 5658 5656 5655 5653 5651 5649 5648 5647 5645 5644 5644
5680 5688 5694 5694 5693 5692 5691 5699 5690 5708 5723 5722 5720 5720 5721 5719 5721 5719 5722 5720 5716 5714 5711 5707 5702 5701 5697 5692 5689 5686 5684 5682 5678 5673 5668 5664 5659 5656 5653 5650 5648 5646 5643 5641 5639 5638 5637 5637 5637
5682 5684 5688 5692 5693 5687 5682 5700 5695 5723 5714 5716 5713 5723 5719 5718 5725 5720 5719 5724 5719 5718 5715 5708 5703 5699 5695 5693 5690 5686 5682 5678 5674 5670 5666 5662 5657 5652 5648 5645 5642 5639 5637 5634 5631 5630 5629 5627 5627
5678 5673 5680 5688 5691 5678 5673 5678 5689 5720 5707 5706 5718 5716 5717 5720 5720 5726 5734 5726 5726 5723 5718 5713 5706 5699 5696 5694 5691 5687 5683 5676 5671 5668 5664 5660 5655 5652 5647 5640 5636 5634 5631 5629 5624 5619 5618 5617 5619
5665 5657 5656 5695 5682 5683 5674 5670 5707 5707 5699 5702 5708 5719 5715 5726 5728 5729 5725 5721 5718 5718 5715 5711 5709 5705 5699 5694 5690 5687 5682 5677 5673 5667 5661 5657 5652 5648 5642 5638 5633 5629 5624 5621 5618 5615 5614 5612 5613
5643 5634 5637 5657 5689 5676 5658 5658 5694 5696 5690 5695 5705 5714 5723 5727 5735 5732 5724 5721 5719 5717 5716 5714 5709 5708 5703 5695 5688 5683 5679 5674 5670 5664 5660 5655 5649 5644 5639 5634 5629 5624 5620 5617 5614 5610 5609 5606 5604
5636 5625 5628 5635 5684 5661 5650 5649 5673 5683 5684 5701 5710 5715 5718 5717 5724 5731 5718 5716 5719 5717 5715 5714 5709 5706 5698 5690 5684 5677 5672 5669 5666 5663 5658 5653 5648 5641 5635 5629 5624 5620 5615 5611 5607 5605 5599 5598 5596
5638 5628 5620 5648 5659 5645 5667 5662 5666 5682 5684 5700 5712 5718 5714 5713 5725 5717 5716 5717 5719 5716 5711 5711 5708 5704 5697 5690 5682 5673 5676 5668 5663 5660 5656 5652 5646 5639 5633 5626 5620 5615 5611 5606 5602 5596 5594 5589 5586
5624 5617 5625 5635 5647 5632 5643 5653 5669 5682 5699 5701 5705 5709 5698 5702 5715 5715 5709 5707 5708 5711 5710 5706 5704 5702 5703 5699 5693 5684 5678 5668 5661 5657 5654 5649 5642 5634 5627 5620 5615 5609 5604 5598 5595 5592 5586 5583 5580
5612 5610 5625 5616 5623 5629 5627 5644 5654 5685 5686 5694 5698 5689 5688 5688 5696 5702 5703 5703 5703 5705 5702 5703 5700 5694 5691 5689 5682 5672 5665 5657 5652 5649 5644 5641 5637 5631 5624 5617 5611 5604 5599 5594 5591 5589 5587 5583 5574
5603 5620 5617 5609 5604 5602 5618 5632 5646 5673 5676 5686 5678 5676 5671 5673 5679 5684 5683 5698 5695 5698 5695 5692 5687 5687 5676 5668 5665 5675 5680 5672 5665 5656 5640 5633 5628 5627 5623 5616 5610 5602 5594 5589 5585 5583 5582 5580 5575
5615 5619 5613 5607 5594 5593 5598 5589 5638 5652 5654 5659 5665 5670 5672 5666 5663 5674 5671 5665 5671 5673 5677 5677 5674 5670 5666 5662 5659 5655 5656 5666 5662 5655 5642 5630 5620 5614 5612 5610 5603 5600 5594 5586 5581 5574 5571 5570 5569
5605 5601 5583 5569 5579 5576 5605 5600 5638 5638 5654 5653 5654 5660 5653 5649 5647 5655 5643 5637 5642 5646 5652 5654 5657 5649 5649 5644 5635 5633 5639 5634 5637 5642 5637 5628 5615 5605 5597 5595 5595 5590 5587 5584 5580 5573 5567 5563 5559
5590 5576 5556 5552 5535 5577 5587 5584 5635 5650 5655 5642 5641 5632 5619 5614 5618 5616 5616 5620 5618 5619 5621 5633 5631 5628 5624 5621 5619 5614 5614 5612 5615 5615 5620 5613 5608 5601 5596 5586 5580 5579 5574 5571 5569 5564 5561 5557 5554
5564 5569 5558 5545 5549 5585 5533 5582 5651 5640 5635 5625 5611 5597 5592 5587 5582 5577 5578 5579 5587 5596 5601 5600 5604 5605 5605 5605 5601 5599 5589 5584 5588 5597 5602 5600 5600 5598 5593 5585 5579 5572 5566 5559 5553 5550 5549 5546 5543
5558 5549 5569 5548 5526 5537 5576 5586 5627 5638 5612 5592 5568 5558 5550 5548 5549 5553 5556 5558 5555 5560 5569 5576 5577 5581 5583 5584 5586 5583 5580 5575 5574 5572 5575 5575 5576 5577 5573 5573 5573 5569 5565 5560 5554 5548 5541 5535 5531
5553 5559 5539 5523 5522 5533 5544 5567 5586 5614 5569 5539 5535 5525 5522 5525 5528 5534 5536 5536 5534 5537 5541 5550 5554 5555 5561 5564 5566 5565 5562 5561 5560 5560 5568 5568 5566 5563 5558 5554 5552 5551 5551 5548 5544 5543 5538 5532 5524
5530 5529 5531 5527 5525 5533 5526 5537 5575 5533 5520 5511 5503 5501 5501 5503 5502 5507 5511 5516 5517 5518 5519 5522 5529 5530 5539 5542 5546 5547 5547 5545 5545 5545 5555 5557 5552 5551 5548 5546 5543 5539 5540 5536 5532 5534 5529 5527 5519
5528 5525 5526 5511 5517 5515 5523 5523 5543 5493 5490 5487 5482 5482 5481 5479 5480 5483 5486 5490 5498 5504 5503 5500 5503 5507 5509 5511 5519 5525 5527 5527 5527 5530 5536 5543 5544 5543 5542 5540 5539 5533 5529 5529 5529 5524 5522 5520 5514